sat.trackr.live / text

‹ back to catalog

STARLINK-32377

NORAD 61888 · 2024-204Q

PAYLOAD ACTIVE UNKNOWN

§ Identity

Operator
Country
US
Launch date
2024-11-09
Launch site
AFWTR
Launch vehicle
Mass (kg)
RCS (m²)

Purposes: comms

External: N2YO · Heavens-Above · Gunter

§ Orbital elements

Epoch: 2026-05-25T02:58:42.976128Z

Period
93.85 min
Inclination
53.1603°
Eccentricity
0.0001215
Mean motion
15.34393160 rev/d
Perigee alt
461.9 km
Apogee alt
463.6 km
Semi-major
6,840.9 km
B*
3.1920e-5
RAAN
131.0850°
Arg perigee
93.5896°
Mean anomaly
266.5246°
Rev number
8,680

§ Raw data

STARLINK-323771 61888U 24204Q   26145.12410852  .00000702  00000+0  31920-4 0  99912 61888  53.1603 131.0850 0001215  93.5896 266.5246 15.34393160 86806

JSON: /api/v1/satellites/61888 · /tle

For live sub-satellite position, see the globe view (requires WebGL).

§ Visibility from observer

Set your observer location to see the next 7 days of passes ≥ 10°. The values pass through the URL so the page stays shareable.

No JS? Fill the form by hand. The geolocation button needs JavaScript.